This is the latest recevied weather packets stored in our database for station/object W5DRO-13. If no packets are shown the sender has not sent any weather packets the latest 10 day(s).
| Time | Temp. | Humidity | Pressure | Rain* | Wind** | Luminosity | Snow |
|---|---|---|---|---|---|---|---|
| 1777676998 | 20° C | 37% | 1018.1 hPa | 0 mm | - | - | - |
| 1777676697 | 20° C | 36% | 1017.9 hPa | 0 mm | - | - | - |
| 1777676394 | 20° C | 37% | 1018.1 hPa | 0 mm | - | - | - |
| 1777676091 | 20° C | 37% | 1018.1 hPa | 0 mm | - | - | - |
| 1777675787 | 20.56° C | 36% | 1017.9 hPa | 0 mm | - | - | - |
| 1777675485 | 20.56° C | 35% | 1017.9 hPa | 0 mm | - | - | - |
| 1777675182 | 20.56° C | 36% | 1017.8 hPa | 0 mm | - | - | - |
| 1777674878 | 20.56° C | 37% | 1017.9 hPa | 0 mm | - | - | - |
| 1777674574 | 20.56° C | 36% | 1017.6 hPa | 0 mm | - | - | - |
| 1777674272 | 20.56° C | 36% | 1017.9 hPa | 0 mm | - | - | - |
| 1777673968 | 20.56° C | 37% | 1017.6 hPa | 0 mm | - | - | - |
| 1777673665 | 20.56° C | 36% | 1017.5 hPa | 0 mm | - | - | - |
| 1777673362 | 20.56° C | 36% | 1017.5 hPa | 0 mm | - | - | - |
| 1777673060 | 21.11° C | 34% | 1017.5 hPa | 0 mm | - | - | - |
| 1777672756 | 21.11° C | 36% | 1017.6 hPa | 0 mm | - | - | - |
| 1777672453 | 20.56° C | 35% | 1017.5 hPa | 0 mm | - | - | - |
| 1777672148 | 21.11° C | 34% | 1017.5 hPa | 0 mm | - | - | - |
| 1777671843 | 20.56° C | 36% | 1017.6 hPa | 0 mm | - | - | - |
| 1777671539 | 20.56° C | 36% | 1017.5 hPa | 0 mm | - | - | - |
| 1777671236 | 21.11° C | 35% | 1017.6 hPa | 0 mm | - | - | - |
| 1777670931 | 21.67° C | 34% | 1017.6 hPa | 0 mm | - | - | - |
| 1777670629 | 22.22° C | 33% | 1017.9 hPa | 0 mm | - | - | - |
| 1777670326 | 22.22° C | 31% | 1017.6 hPa | 0 mm | - | - | - |
| 1777670023 | 21.67° C | 33% | 1017.8 hPa | 0 mm | - | - | - |
| 1777669720 | 21.11° C | 35% | 1017.9 hPa | 0 mm | - | - | - |
* Rain latest hour (hover to see other rain measurements)
** Current wind speed in m/s (hover to see current wind gust speed)